Location: Kaseke
(18.0171°S, 31.0526°E)
Time: 12:48:07
(UTC+00:00)

Cosmos 2322 Rocket - Pass Details

Date: 14 July 2020
Orbit: 832 x 851 km, 71.0° (Epoch: 07 August)

Event Time Altitude Azimuth Distance (km) Brightness Sun altitude
Rises 03:03:54 0° 360° (N) 3,395 5.6 -19.6°
Reaches altitude 10° 03:06:27 10° 7° (N) 2,467 4.9 -19.0°
Maximum altitude 03:11:45 42° 76° (ENE) 1,203 3.5 -17.8°
Drops below altitude 10° 03:17:06 10° 145° (SE) 2,489 4.8 -16.6°
Sets 03:19:40 0° 152° (SSE) 3,429 5.5 -16.0°
